Time,TemperatureF,DewpointF,PressureIn,WindDirection,WindDirectionDegrees,WindSpeedMPH,WindSpeedGustMPH,Humidity,HourlyPrecipIn,Conditions,Clouds,dailyrainin,SoftwareType,DateUTC
2013-03-28 00:00:00,29.8,20.7,27.37,NNW,334,5.3,16.6,68,0.00,--,--,0.00,awk and wget,2013-03-28 04:00:00,
2013-03-28 00:05:00,29.9,20.9,27.38,NNE,20,4.0,13.1,68,0.00,--,--,0.00,awk and wget,2013-03-28 04:05:00,
2013-03-28 00:10:00,29.8,20.8,27.38,NNW,340,8.4,13.4,68,0.00,--,--,0.00,awk and wget,2013-03-28 04:10:00,
2013-03-28 00:15:00,29.8,20.9,27.37,NNW,340,11.2,19.9,69,0.00,--,--,0.00,awk and wget,2013-03-28 04:15:00,
2013-03-28 00:20:00,30.0,20.8,27.38,NNW,343,18.8,22.6,68,0.00,--,--,0.00,awk and wget,2013-03-28 04:20:00,
2013-03-28 00:25:00,29.9,20.4,27.37,North,356,11.1,24.4,67,0.00,--,--,0.00,awk and wget,2013-03-28 04:25:00,
2013-03-28 00:30:00,29.8,20.6,27.37,NNW,340,7.6,24.4,68,0.00,--,--,0.00,awk and wget,2013-03-28 04:30:00,
2013-03-28 00:35:00,29.8,20.7,27.37,NNW,340,10.3,24.4,68,0.00,--,--,0.00,awk and wget,2013-03-28 04:35:00,
2013-03-28 00:40:00,29.9,20.1,27.37,NNW,336,10.8,14.9,66,0.00,--,--,0.00,awk and wget,2013-03-28 04:40:00,
2013-03-28 00:45:00,29.8,20.1,27.37,NNW,336,10.3,22.3,66,0.00,--,--,0.00,awk and wget,2013-03-28 04:45:00,
2013-03-28 00:50:00,29.7,20.3,27.37,NNW,334,17.1,22.3,67,0.00,--,--,0.00,awk and wget,2013-03-28 04:50:00,
2013-03-28 01:00:00,29.6,19.5,27.37,NNW,345,6.5,17.2,65,0.00,--,--,0.00,awk and wget,2013-03-28 05:00:00,
2013-03-28 01:05:00,29.8,19.0,27.37,NNW,348,5.9,17.2,63,0.00,--,--,0.00,awk and wget,2013-03-28 05:05:00,
2013-03-28 01:10:00,29.8,19.1,27.37,NNW,343,5.9,18.9,64,0.00,--,--,0.00,awk and wget,2013-03-28 05:10:00,
2013-03-28 01:15:00,29.7,19.2,27.37,North,352,8.2,18.9,64,0.00,--,--,0.00,awk and wget,2013-03-28 05:15:00,
2013-03-28 01:20:00,29.8,19.4,27.37,NNW,340,12.5,22.2,64,0.00,--,--,0.00,awk and wget,2013-03-28 05:20:00,
2013-03-28 01:25:00,29.8,19.4,27.37,NNW,341,8.6,22.2,64,0.00,--,--,0.00,awk and wget,2013-03-28 05:25:00,
2013-03-28 01:30:00,29.7,19.6,27.37,NNW,340,11.6,24.3,65,0.00,--,--,0.00,awk and wget,2013-03-28 05:30:00,
2013-03-28 01:40:00,29.6,19.7,27.37,NNW,339,12.5,24.3,65,0.00,--,--,0.00,awk and wget,2013-03-28 05:40:00,
2013-03-28 01:45:00,29.7,19.4,27.36,NNW,336,13.7,18.7,65,0.00,--,--,0.00,awk and wget,2013-03-28 05:45:00,
2013-03-28 01:50:00,29.7,19.5,27.36,NNW,345,14.4,21.6,65,0.00,--,--,0.00,awk and wget,2013-03-28 05:50:00,
2013-03-28 01:55:00,29.5,19.3,27.36,NNW,341,9.3,21.6,65,0.00,--,--,0.00,awk and wget,2013-03-28 05:55:00,
2013-03-28 02:00:00,29.5,19.4,27.37,NNW,335,4.8,21.6,65,0.00,--,--,0.00,awk and wget,2013-03-28 06:00:00,
2013-03-28 02:05:00,29.6,19.4,27.36,NNW,340,3.7,17.0,65,0.00,--,--,0.00,awk and wget,2013-03-28 06:05:00,
2013-03-28 02:10:00,29.5,19.5,27.36,NNW,340,6.2,17.0,65,0.00,--,--,0.00,awk and wget,2013-03-28 06:10:00,
2013-03-28 02:15:00,29.5,19.4,27.36,NNW,347,8.4,18.7,65,0.00,--,--,0.00,awk and wget,2013-03-28 06:15:00,
2013-03-28 02:20:00,29.5,19.5,27.36,NNW,346,7.4,18.7,65,0.00,--,--,0.00,awk and wget,2013-03-28 06:20:00,
2013-03-28 02:30:00,29.5,19.7,27.36,NNW,334,18.9,18.9,66,0.00,--,--,0.00,awk and wget,2013-03-28 06:30:00,
2013-03-28 02:35:00,29.5,19.6,27.36,North,351,6.7,18.1,66,0.00,--,--,0.00,awk and wget,2013-03-28 06:35:00,
2013-03-28 02:40:00,29.5,19.6,27.36,NNW,335,9.8,20.9,66,0.00,--,--,0.00,awk and wget,2013-03-28 06:40:00,
2013-03-28 02:45:00,29.6,19.4,27.36,NNW,346,9.8,20.9,65,0.00,--,--,0.00,awk and wget,2013-03-28 06:45:00,
2013-03-28 02:50:00,29.5,19.7,27.36,NE,38,5.0,21.0,66,0.00,--,--,0.00,awk and wget,2013-03-28 06:50:00,
2013-03-28 03:00:00,29.5,19.6,27.36,NNW,340,7.7,21.0,66,0.00,--,--,0.00,awk and wget,2013-03-28 07:00:00,
2013-03-28 03:05:00,29.5,19.5,27.36,NNW,340,7.6,18.9,65,0.00,--,--,0.00,awk and wget,2013-03-28 07:05:00,
2013-03-28 03:10:00,29.5,19.5,27.36,NNW,346,3.0,18.0,66,0.00,--,--,0.00,awk and wget,2013-03-28 07:10:00,
2013-03-28 03:15:00,29.4,19.7,27.36,NNW,340,8.8,18.0,66,0.00,--,--,0.00,awk and wget,2013-03-28 07:15:00,
2013-03-28 03:20:00,29.4,19.5,27.36,NNW,347,8.5,19.0,66,0.00,--,--,0.00,awk and wget,2013-03-28 07:20:00,
2013-03-28 03:25:00,29.4,19.6,27.36,NNW,340,8.2,19.0,66,0.00,--,--,0.00,awk and wget,2013-03-28 07:25:00,
2013-03-28 03:30:00,29.3,19.4,27.36,NNW,340,3.3,21.9,66,0.00,--,--,0.00,awk and wget,2013-03-28 07:30:00,
2013-03-28 03:35:00,29.4,19.1,27.36,North,353,9.5,25.8,65,0.00,--,--,0.00,awk and wget,2013-03-28 07:35:00,
2013-03-28 03:40:00,29.3,19.2,27.36,NNW,346,6.5,25.8,65,0.00,--,--,0.00,awk and wget,2013-03-28 07:40:00,
2013-03-28 03:45:00,29.2,19.1,27.36,NNW,347,4.5,25.8,65,0.00,--,--,0.00,awk and wget,2013-03-28 07:45:00,
2013-03-28 03:50:00,29.2,18.9,27.36,North,352,3.2,14.3,64,0.00,--,--,0.00,awk and wget,2013-03-28 07:50:00,
2013-03-28 04:00:00,29.2,18.8,27.36,NNW,340,9.0,18.5,64,0.00,--,--,0.00,awk and wget,2013-03-28 08:00:00,
2013-03-28 04:05:00,29.1,18.8,27.35,NNE,12,4.0,18.5,64,0.00,--,--,0.00,awk and wget,2013-03-28 08:05:00,
2013-03-28 04:10:00,29.1,19.1,27.35,NNW,347,8.6,18.5,65,0.00,--,--,0.00,awk and wget,2013-03-28 08:10:00,
2013-03-28 04:15:00,29.0,19.4,27.35,North,350,6.3,17.6,66,0.00,--,--,0.00,awk and wget,2013-03-28 08:15:00,
2013-03-28 04:20:00,29.0,19.3,27.35,NNW,337,6.8,17.7,66,0.00,--,--,0.00,awk and wget,2013-03-28 08:20:00,
2013-03-28 04:30:00,29.0,19.4,27.35,NNW,345,6.0,20.9,66,0.00,--,--,0.00,awk and wget,2013-03-28 08:30:00,
2013-03-28 04:35:00,28.9,19.5,27.36,North,350,10.4,20.9,67,0.00,--,--,0.00,awk and wget,2013-03-28 08:35:00,
2013-03-28 04:40:00,29.0,19.4,27.35,NNW,348,7.1,13.8,66,0.00,--,--,0.00,awk and wget,2013-03-28 08:40:00,
2013-03-28 04:45:00,28.9,19.6,27.35,NNW,340,10.9,13.4,67,0.00,--,--,0.00,awk and wget,2013-03-28 08:45:00,
2013-03-28 04:50:00,28.9,19.6,27.35,NNW,337,1.9,16.8,67,0.00,--,--,0.00,awk and wget,2013-03-28 08:50:00,
2013-03-28 04:55:00,28.9,19.5,27.36,NNW,344,5.4,16.8,67,0.00,--,--,0.00,awk and wget,2013-03-28 08:55:00,
2013-03-28 05:00:00,29.0,19.5,27.35,NNW,343,4.9,20.2,67,0.00,--,--,0.00,awk and wget,2013-03-28 09:00:00,
2013-03-28 05:10:00,28.9,19.4,27.35,NNW,345,8.3,20.2,67,0.00,--,--,0.00,awk and wget,2013-03-28 09:10:00,
2013-03-28 05:20:00,28.8,19.5,27.35,NNW,339,6.9,20.9,67,0.00,--,--,0.00,awk and wget,2013-03-28 09:20:00,
2013-03-28 05:30:00,28.8,19.2,27.35,NNW,340,7.4,20.9,66,0.00,--,--,0.00,awk and wget,2013-03-28 09:30:00,
2013-03-28 05:35:00,28.8,19.2,27.36,NNW,340,8.1,14.4,66,0.00,--,--,0.00,awk and wget,2013-03-28 09:35:00,
2013-03-28 05:40:00,28.7,19.2,27.36,NNW,338,8.4,11.3,67,0.00,--,--,0.00,awk and wget,2013-03-28 09:40:00,
2013-03-28 05:45:00,28.7,19.2,27.36,NNW,345,9.7,9.7,67,0.00,--,--,0.00,awk and wget,2013-03-28 09:45:00,
2013-03-28 05:50:00,28.7,19.3,27.36,NNW,345,6.5,10.8,67,0.00,--,--,0.00,awk and wget,2013-03-28 09:50:00,
2013-03-28 05:55:00,28.7,19.1,27.36,North,9,7.3,13.4,66,0.00,--,--,0.00,awk and wget,2013-03-28 09:55:00,
2013-03-28 06:00:00,28.7,19.1,27.36,NNW,340,7.1,13.7,66,0.00,--,--,0.00,awk and wget,2013-03-28 10:00:00,
2013-03-28 06:05:00,28.6,19.2,27.36,NNW,348,11.1,13.7,67,0.00,--,--,0.00,awk and wget,2013-03-28 10:05:00,
2013-03-28 06:10:00,28.6,19.1,27.36,NNW,340,11.0,15.1,67,0.00,--,--,0.00,awk and wget,2013-03-28 10:10:00,
2013-03-28 06:15:00,28.6,19.0,27.36,North,354,6.7,15.1,66,0.00,--,--,0.00,awk and wget,2013-03-28 10:15:00,
2013-03-28 06:20:00,28.6,19.1,27.36,NNW,337,8.8,15.1,67,0.00,--,--,0.00,awk and wget,2013-03-28 10:20:00,
2013-03-28 06:30:00,28.6,18.9,27.36,NNW,335,7.5,12.9,66,0.00,--,--,0.00,awk and wget,2013-03-28 10:30:00,
2013-03-28 06:35:00,28.4,19.1,27.36,NNW,340,4.2,12.9,67,0.00,--,--,0.00,awk and wget,2013-03-28 10:35:00,
2013-03-28 06:40:00,28.4,19.1,27.36,NNW,339,13.8,16.2,67,0.00,--,--,0.00,awk and wget,2013-03-28 10:40:00,
2013-03-28 06:45:00,28.4,19.0,27.37,NNW,341,13.6,16.2,67,0.00,--,--,0.00,awk and wget,2013-03-28 10:45:00,
2013-03-28 06:50:00,28.5,18.9,27.36,NE,38,6.6,16.2,66,0.00,--,--,0.00,awk and wget,2013-03-28 10:50:00,
2013-03-28 06:55:00,28.4,18.9,27.37,North,354,14.8,21.0,66,0.00,--,--,0.00,awk and wget,2013-03-28 10:55:00,
2013-03-28 07:00:00,28.4,18.8,27.37,North,350,4.9,21.0,66,0.00,--,--,0.00,awk and wget,2013-03-28 11:00:00,
2013-03-28 07:05:00,28.4,18.6,27.37,NNW,341,7.3,21.0,66,0.00,--,--,0.00,awk and wget,2013-03-28 11:05:00,
2013-03-28 07:10:00,28.4,18.6,27.37,NNW,345,12.0,20.0,66,0.00,--,--,0.00,awk and wget,2013-03-28 11:10:00,
2013-03-28 07:20:00,28.4,18.6,27.37,NNW,336,4.0,20.0,66,0.00,--,--,0.00,awk and wget,2013-03-28 11:20:00,
2013-03-28 07:25:00,28.3,18.6,27.37,North,352,6.4,11.8,66,0.00,--,--,0.00,awk and wget,2013-03-28 11:25:00,
2013-03-28 07:30:00,28.3,18.7,27.37,NNW,341,2.7,14.6,66,0.00,--,--,0.00,awk and wget,2013-03-28 11:30:00,
2013-03-28 07:35:00,28.3,18.4,27.37,NNW,347,7.3,14.6,66,0.00,--,--,0.00,awk and wget,2013-03-28 11:35:00,
2013-03-28 07:40:00,28.2,18.6,27.38,NNW,342,13.0,14.6,66,0.00,--,--,0.00,awk and wget,2013-03-28 11:40:00,
2013-03-28 07:45:00,28.4,18.2,27.38,NNW,347,7.9,11.6,65,0.00,--,--,0.00,awk and wget,2013-03-28 11:45:00,
2013-03-28 07:50:00,28.3,18.3,27.38,NNW,335,4.0,11.6,65,0.00,--,--,0.00,awk and wget,2013-03-28 11:50:00,
2013-03-28 07:55:00,28.4,18.4,27.38,NNW,345,6.8,10.4,65,0.00,--,--,0.00,awk and wget,2013-03-28 11:55:00,
2013-03-28 08:00:00,28.5,17.9,27.38,NNW,343,4.7,10.4,64,0.00,--,--,0.00,awk and wget,2013-03-28 12:00:00,
2013-03-28 08:10:00,28.4,18.0,27.38,NNW,338,6.1,18.9,64,0.00,--,--,0.00,awk and wget,2013-03-28 12:10:00,
2013-03-28 08:15:00,28.3,17.9,27.38,ENE,73,2.6,18.9,64,0.00,--,--,0.00,awk and wget,2013-03-28 12:15:00,
2013-03-28 08:20:00,28.3,18.1,27.38,NNW,337,3.2,14.9,64,0.00,--,--,0.00,awk and wget,2013-03-28 12:20:00,
2013-03-28 08:30:00,28.5,18.0,27.39,NNW,339,8.4,15.1,64,0.00,--,--,0.00,awk and wget,2013-03-28 12:30:00,
2013-03-28 08:40:00,28.7,18.1,27.39,NNW,338,3.5,21.5,63,0.00,--,--,0.00,awk and wget,2013-03-28 12:40:00,
2013-03-28 08:45:00,28.7,18.1,27.39,North,0,3.3,21.5,63,0.00,--,--,0.00,awk and wget,2013-03-28 12:45:00,
2013-03-28 08:50:00,29.2,18.3,27.39,North,354,11.6,23.8,63,0.00,--,--,0.00,awk and wget,2013-03-28 12:50:00,
2013-03-28 08:55:00,29.3,18.1,27.39,NNW,339,7.0,23.8,62,0.00,--,--,0.00,awk and wget,2013-03-28 12:55:00,
2013-03-28 09:00:00,29.0,18.0,27.39,NNW,342,7.1,25.7,63,0.00,--,--,0.00,awk and wget,2013-03-28 13:00:00,
2013-03-28 09:05:00,29.1,17.9,27.39,NNW,335,5.5,25.7,62,0.00,--,--,0.00,awk and wget,2013-03-28 13:05:00,
2013-03-28 09:10:00,29.8,17.9,27.39,NNW,335,5.6,25.7,60,0.00,--,--,0.00,awk and wget,2013-03-28 13:10:00,
2013-03-28 09:20:00,29.4,17.8,27.39,NNW,340,7.5,18.2,61,0.00,--,--,0.00,awk and wget,2013-03-28 13:20:00,
2013-03-28 09:30:00,30.5,17.9,27.40,NNW,347,3.2,18.2,59,0.00,--,--,0.00,awk and wget,2013-03-28 13:30:00,
2013-03-28 09:40:00,30.5,17.3,27.39,NNW,341,3.2,15.8,57,0.00,--,--,0.00,awk and wget,2013-03-28 13:40:00,
2013-03-28 09:50:00,30.3,18.1,27.39,NNW,336,7.9,11.5,59,0.00,--,--,0.00,awk and wget,2013-03-28 13:50:00,
2013-03-28 09:55:00,31.3,17.7,27.39,NNW,339,2.7,21.1,56,0.00,--,--,0.00,awk and wget,2013-03-28 13:55:00,
2013-03-28 10:00:00,31.8,17.7,27.39,NNW,340,8.6,21.1,55,0.00,--,--,0.00,awk and wget,2013-03-28 14:00:00,
2013-03-28 10:10:00,31.4,17.3,27.39,NNW,346,6.0,18.9,55,0.00,--,--,0.00,awk and wget,2013-03-28 14:10:00,
2013-03-28 10:15:00,31.9,17.1,27.39,NNW,333,15.6,16.8,53,0.00,--,--,0.00,awk and wget,2013-03-28 14:15:00,
2013-03-28 10:20:00,31.3,16.9,27.39,NNW,340,14.0,21.5,54,0.00,--,--,0.00,awk and wget,2013-03-28 14:20:00,
2013-03-28 10:30:00,32.2,17.7,27.40,NNW,347,16.8,23.6,54,0.00,--,--,0.00,awk and wget,2013-03-28 14:30:00,
2013-03-28 10:40:00,32.7,16.6,27.40,NNW,345,15.9,23.6,50,0.00,--,--,0.00,awk and wget,2013-03-28 14:40:00,
2013-03-28 10:45:00,33.3,16.7,27.39,NNW,342,3.9,23.5,50,0.00,--,--,0.00,awk and wget,2013-03-28 14:45:00,
2013-03-28 10:50:00,34.4,16.8,27.40,NNW,333,9.9,23.5,48,0.00,--,--,0.00,awk and wget,2013-03-28 14:50:00,
2013-03-28 11:00:00,33.2,17.1,27.40,NNW,337,13.5,24.3,51,0.00,--,--,0.00,awk and wget,2013-03-28 15:00:00,
2013-03-28 11:10:00,33.4,17.2,27.39,NNW,336,24.8,29.1,50,0.00,--,--,0.00,awk and wget,2013-03-28 15:10:00,
2013-03-28 11:15:00,33.1,17.5,27.40,NNW,335,11.6,29.1,52,0.00,--,--,0.00,awk and wget,2013-03-28 15:15:00,
2013-03-28 11:20:00,34.2,17.3,27.40,NNW,335,5.8,25.6,49,0.00,--,--,0.00,awk and wget,2013-03-28 15:20:00,
2013-03-28 11:30:00,35.6,16.1,27.40,NNE,23,13.0,20.2,44,0.00,--,--,0.00,awk and wget,2013-03-28 15:30:00,
2013-03-28 11:40:00,34.8,16.7,27.40,NNW,340,9.3,17.1,47,0.00,--,--,0.00,awk and wget,2013-03-28 15:40:00,
2013-03-28 11:50:00,35.9,17.6,27.40,NNW,344,4.5,22.7,46,0.00,--,--,0.00,awk and wget,2013-03-28 15:50:00,
2013-03-28 12:00:00,35.4,16.9,27.40,NNW,336,18.6,22.5,46,0.00,--,--,0.00,awk and wget,2013-03-28 16:00:00,
2013-03-28 12:10:00,36.1,17.4,27.40,NNW,339,11.5,21.6,46,0.00,--,--,0.00,awk and wget,2013-03-28 16:10:00,
2013-03-28 12:20:00,35.8,17.7,27.40,NNW,335,7.2,22.7,47,0.00,--,--,0.00,awk and wget,2013-03-28 16:20:00,
2013-03-28 12:30:00,35.3,18.0,27.40,NNW,344,10.9,17.9,49,0.00,--,--,0.00,awk and wget,2013-03-28 16:30:00,
2013-03-28 12:35:00,35.7,18.2,27.40,NNW,335,8.0,23.7,48,0.00,--,--,0.00,awk and wget,2013-03-28 16:35:00,
2013-03-28 12:40:00,34.4,18.8,27.40,North,352,18.0,25.9,52,0.00,--,--,0.00,awk and wget,2013-03-28 16:40:00,
2013-03-28 12:45:00,35.1,18.8,27.40,NNW,331,14.2,25.9,51,0.00,--,--,0.00,awk and wget,2013-03-28 16:45:00,
2013-03-28 12:50:00,34.4,19.0,27.40,NNW,334,16.5,25.9,52,0.00,--,--,0.00,awk and wget,2013-03-28 16:50:00,
2013-03-28 13:00:00,34.7,19.0,27.40,NNW,334,11.7,23.0,52,0.00,--,--,0.00,awk and wget,2013-03-28 17:00:00,
2013-03-28 13:10:00,34.5,19.1,27.40,NNW,335,6.3,23.0,52,0.00,--,--,0.00,awk and wget,2013-03-28 17:10:00,
2013-03-28 13:15:00,35.1,19.1,27.40,NNW,334,5.5,19.7,51,0.00,--,--,0.00,awk and wget,2013-03-28 17:15:00,
2013-03-28 13:20:00,34.5,19.1,27.40,NNW,331,12.0,16.2,52,0.00,--,--,0.00,awk and wget,2013-03-28 17:20:00,
2013-03-28 13:25:00,34.0,19.0,27.41,NNW,338,9.5,21.0,53,0.00,--,--,0.00,awk and wget,2013-03-28 17:25:00,
2013-03-28 13:30:00,33.7,19.5,27.41,North,351,4.4,21.0,55,0.00,--,--,0.00,awk and wget,2013-03-28 17:30:00,
2013-03-28 13:40:00,33.7,19.4,27.41,NNW,340,7.9,22.6,55,0.00,--,--,0.00,awk and wget,2013-03-28 17:40:00,
2013-03-28 13:50:00,33.9,19.6,27.40,NNW,337,8.4,19.1,55,0.00,--,--,0.00,awk and wget,2013-03-28 17:50:00,
2013-03-28 14:00:00,33.8,19.9,27.41,NNW,337,12.8,16.1,56,0.00,--,--,0.00,awk and wget,2013-03-28 18:00:00,
2013-03-28 14:10:00,33.8,20.1,27.41,NNW,335,8.1,20.4,56,0.00,--,--,0.00,awk and wget,2013-03-28 18:10:00,
2013-03-28 14:20:00,33.9,20.0,27.41,NNW,335,11.4,22.3,56,0.00,--,--,0.00,awk and wget,2013-03-28 18:20:00,
2013-03-28 14:30:00,33.8,20.2,27.41,NNW,347,2.8,22.3,57,0.00,--,--,0.00,awk and wget,2013-03-28 18:30:00,
2013-03-28 14:35:00,33.8,20.7,27.41,NNW,334,16.4,17.3,58,0.00,--,--,0.00,awk and wget,2013-03-28 18:35:00,
2013-03-28 14:40:00,33.8,20.5,27.41,NNW,331,16.0,17.3,57,0.00,--,--,0.00,awk and wget,2013-03-28 18:40:00,
2013-03-28 14:50:00,33.8,20.6,27.41,NNW,336,7.0,16.2,58,0.00,--,--,0.00,awk and wget,2013-03-28 18:50:00,
2013-03-28 15:00:00,34.2,20.3,27.41,NNW,343,7.4,16.2,56,0.00,--,--,0.00,awk and wget,2013-03-28 19:00:00,
2013-03-28 15:10:00,34.2,20.6,27.40,NNW,337,8.0,17.9,57,0.00,--,--,0.00,awk and wget,2013-03-28 19:10:00,
2013-03-28 15:15:00,34.7,20.8,27.41,NNW,331,4.5,17.9,56,0.00,--,--,0.00,awk and wget,2013-03-28 19:15:00,
2013-03-28 15:20:00,34.7,20.7,27.41,NNW,332,9.0,18.8,56,0.00,--,--,0.00,awk and wget,2013-03-28 19:20:00,
2013-03-28 15:30:00,34.2,20.4,27.40,NNW,335,7.7,19.4,56,0.00,--,--,0.00,awk and wget,2013-03-28 19:30:00,
2013-03-28 15:40:00,34.5,21.0,27.40,NNW,331,8.6,17.1,57,0.00,--,--,0.00,awk and wget,2013-03-28 19:40:00,
2013-03-28 15:50:00,34.2,21.7,27.40,NNW,336,9.9,17.1,59,0.00,--,--,0.00,awk and wget,2013-03-28 19:50:00,
2013-03-28 16:00:00,34.4,21.9,27.40,NNW,343,9.5,18.9,59,0.00,--,--,0.00,awk and wget,2013-03-28 20:00:00,
2013-03-28 16:10:00,34.1,22.0,27.41,NNW,348,8.7,12.5,60,0.00,--,--,0.00,awk and wget,2013-03-28 20:10:00,
2013-03-28 16:15:00,34.0,22.4,27.41,NNW,343,4.4,12.5,62,0.00,--,--,0.00,awk and wget,2013-03-28 20:15:00,
2013-03-28 16:20:00,34.1,22.2,27.41,NNW,346,5.8,12.7,61,0.00,--,--,0.00,awk and wget,2013-03-28 20:20:00,
2013-03-28 16:30:00,34.4,22.3,27.41,NNW,342,3.7,16.7,60,0.00,--,--,0.00,awk and wget,2013-03-28 20:30:00,
2013-03-28 16:40:00,34.5,22.2,27.41,NNW,340,7.3,16.7,60,0.00,--,--,0.00,awk and wget,2013-03-28 20:40:00,
2013-03-28 16:50:00,34.4,22.6,27.41,NNW,336,8.0,20.2,61,0.00,--,--,0.00,awk and wget,2013-03-28 20:50:00,
2013-03-28 17:00:00,34.8,22.8,27.41,NNW,336,6.1,16.0,61,0.00,--,--,0.00,awk and wget,2013-03-28 21:00:00,
2013-03-28 17:10:00,34.7,22.5,27.41,NNW,347,6.7,18.4,60,0.00,--,--,0.00,awk and wget,2013-03-28 21:10:00,
2013-03-28 17:20:00,34.5,22.6,27.41,NNW,334,10.0,18.6,61,0.00,--,--,0.00,awk and wget,2013-03-28 21:20:00,
2013-03-28 17:25:00,34.5,22.5,27.41,NNW,341,12.6,18.6,61,0.00,--,--,0.00,awk and wget,2013-03-28 21:25:00,
2013-03-28 17:30:00,34.6,22.8,27.41,NNW,347,7.9,18.5,61,0.00,--,--,0.00,awk and wget,2013-03-28 21:30:00,
2013-03-28 17:40:00,34.4,22.8,27.41,North,359,5.5,16.4,62,0.00,--,--,0.00,awk and wget,2013-03-28 21:40:00,
2013-03-28 17:50:00,34.9,22.4,27.41,North,351,8.1,16.4,59,0.00,--,--,0.00,awk and wget,2013-03-28 21:50:00,
2013-03-28 17:55:00,34.7,22.2,27.41,NNW,335,6.9,13.7,59,0.00,--,--,0.00,awk and wget,2013-03-28 21:55:00,
2013-03-28 18:00:00,35.0,22.4,27.41,NNW,335,5.5,14.2,59,0.00,--,--,0.00,awk and wget,2013-03-28 22:00:00,
2013-03-28 18:10:00,34.9,22.5,27.42,NNW,336,6.4,14.2,60,0.00,--,--,0.00,awk and wget,2013-03-28 22:10:00,
2013-03-28 18:15:00,34.9,22.0,27.42,North,350,10.1,12.8,59,0.00,--,--,0.00,awk and wget,2013-03-28 22:15:00,
2013-03-28 18:20:00,34.6,22.1,27.42,NNW,337,8.7,12.5,59,0.00,--,--,0.00,awk and wget,2013-03-28 22:20:00,
2013-03-28 18:30:00,34.7,22.6,27.42,NNW,332,1.4,12.3,60,0.00,--,--,0.00,awk and wget,2013-03-28 22:30:00,
2013-03-28 18:40:00,34.4,22.5,27.42,NNW,336,9.8,13.1,61,0.00,--,--,0.00,awk and wget,2013-03-28 22:40:00,
2013-03-28 18:50:00,34.4,22.5,27.42,NNW,339,6.7,12.7,61,0.00,--,--,0.00,awk and wget,2013-03-28 22:50:00,
2013-03-28 18:55:00,34.3,22.5,27.42,NNW,337,20.3,20.3,61,0.00,--,--,0.00,awk and wget,2013-03-28 22:55:00,
2013-03-28 19:00:00,34.3,22.6,27.43,NNW,338,11.2,17.7,61,0.00,--,--,0.00,awk and wget,2013-03-28 23:00:00,
2013-03-28 19:10:00,34.2,22.5,27.43,NNW,342,5.6,17.7,61,0.00,--,--,0.00,awk and wget,2013-03-28 23:10:00,
2013-03-28 19:20:00,34.0,22.7,27.43,NNW,337,15.1,16.3,62,0.00,--,--,0.00,awk and wget,2013-03-28 23:20:00,
2013-03-28 19:30:00,33.7,22.5,27.43,NNW,334,2.7,20.0,63,0.00,--,--,0.00,awk and wget,2013-03-28 23:30:00,
2013-03-28 19:40:00,33.5,22.6,27.43,NNW,343,3.8,17.9,63,0.00,--,--,0.00,awk and wget,2013-03-28 23:40:00,
2013-03-28 19:50:00,33.5,22.4,27.43,NNW,338,2.0,15.4,63,0.00,--,--,0.00,awk and wget,2013-03-28 23:50:00,
2013-03-28 20:00:00,33.6,22.7,27.43,North,353,2.2,15.8,63,0.00,--,--,0.00,awk and wget,2013-03-29 00:00:00,
2013-03-28 20:10:00,33.4,22.7,27.43,NNW,338,3.2,12.7,64,0.00,--,--,0.00,awk and wget,2013-03-29 00:10:00,
2013-03-28 20:20:00,33.8,22.8,27.43,NNW,338,7.9,17.4,63,0.00,--,--,0.00,awk and wget,2013-03-29 00:20:00,
2013-03-28 20:30:00,33.7,22.4,27.44,East,97,2.0,17.4,62,0.00,--,--,0.00,awk and wget,2013-03-29 00:30:00,
2013-03-28 20:40:00,33.5,22.9,27.44,NE,40,4.9,15.3,64,0.00,--,--,0.00,awk and wget,2013-03-29 00:40:00,
2013-03-28 20:45:00,33.7,22.9,27.44,NNW,343,10.9,15.3,64,0.00,--,--,0.00,awk and wget,2013-03-29 00:45:00,
2013-03-28 20:50:00,33.9,22.3,27.44,North,352,4.4,15.6,61,0.00,--,--,0.00,awk and wget,2013-03-29 00:50:00,
2013-03-28 21:00:00,33.4,23.0,27.44,NNW,334,3.1,24.2,65,0.00,--,--,0.00,awk and wget,2013-03-29 01:00:00,
2013-03-28 21:10:00,33.7,22.6,27.44,NNW,333,3.2,17.2,63,0.00,--,--,0.00,awk and wget,2013-03-29 01:10:00,
2013-03-28 21:15:00,33.9,22.4,27.44,NNE,15,3.2,18.0,62,0.00,--,--,0.00,awk and wget,2013-03-29 01:15:00,
2013-03-28 21:20:00,34.2,22.2,27.44,NNW,339,5.6,18.0,61,0.00,--,--,0.00,awk and wget,2013-03-29 01:20:00,
2013-03-28 21:30:00,33.8,22.7,27.44,East,92,2.5,17.6,63,0.00,--,--,0.00,awk and wget,2013-03-29 01:30:00,
2013-03-28 21:40:00,33.9,22.5,27.44,ENE,78,8.1,15.3,62,0.00,--,--,0.00,awk and wget,2013-03-29 01:40:00,
2013-03-28 21:50:00,33.8,23.0,27.45,NNW,338,9.4,15.1,64,0.00,--,--,0.00,awk and wget,2013-03-29 01:50:00,
2013-03-28 22:00:00,33.8,22.3,27.45,NE,40,2.9,13.3,62,0.00,--,--,0.00,awk and wget,2013-03-29 02:00:00,
2013-03-28 22:10:00,33.8,22.7,27.45,NNE,24,4.5,16.3,63,0.00,--,--,0.00,awk and wget,2013-03-29 02:10:00,
2013-03-28 22:15:00,34.2,22.5,27.45,East,99,5.2,20.0,61,0.00,--,--,0.00,awk and wget,2013-03-29 02:15:00,
2013-03-28 22:20:00,34.0,23.0,27.45,NE,40,0.9,20.0,63,0.00,--,--,0.00,awk and wget,2013-03-29 02:20:00,
2013-03-28 22:30:00,34.0,22.8,27.45,NE,48,6.0,18.0,63,0.00,--,--,0.00,awk and wget,2013-03-29 02:30:00,
2013-03-28 22:40:00,34.5,22.1,27.45,NE,46,4.9,18.0,60,0.00,--,--,0.00,awk and wget,2013-03-29 02:40:00,
2013-03-28 22:50:00,34.6,22.2,27.45,East,85,5.2,14.3,60,0.00,--,--,0.00,awk and wget,2013-03-29 02:50:00,
2013-03-28 23:00:00,34.3,22.3,27.46,NE,38,1.8,8.5,61,0.00,--,--,0.00,awk and wget,2013-03-29 03:00:00,
2013-03-28 23:05:00,34.4,22.2,27.46,NE,37,5.1,12.9,60,0.00,--,--,0.00,awk and wget,2013-03-29 03:05:00,
2013-03-28 23:10:00,34.5,22.3,27.46,North,349,11.9,15.5,60,0.00,--,--,0.00,awk and wget,2013-03-29 03:10:00,
2013-03-28 23:20:00,34.5,22.6,27.46,NNW,339,3.9,17.0,61,0.00,--,--,0.00,awk and wget,2013-03-29 03:20:00,
2013-03-28 23:30:00,34.6,22.2,27.45,NNW,339,0.8,11.9,60,0.00,--,--,0.00,awk and wget,2013-03-29 03:30:00,
2013-03-28 23:40:00,34.7,22.5,27.45,NNW,333,6.2,24.1,60,0.00,--,--,0.00,awk and wget,2013-03-29 03:40:00,
2013-03-28 23:50:00,34.7,22.3,27.45,NNW,338,1.7,24.1,60,0.00,--,--,0.00,awk and wget,2013-03-29 03:50:00,